Weather History for Everett, WA

Change the Weather History Date:

Tuesday, October 9, 2012

  Actual Average Record
Temperature  
Mean Temperature 52 °F -  
Max Temperature 57 °F 63 °F 80 °F (1996)
Min Temperature 48 °F 44 °F 32 °F (1985)
Degree Days  
Heating Degree Days 14    
Growing Degree Days 2 (Base 50)    
Moisture  
Dew Point 46 °F    
Average Humidity 84    
Maximum Humidity 94    
Minimum Humidity 72    
Precipitation  
Precipitation 0.00 in - - ()
Sea Level Pressure  
Sea Level Pressure 30.09 in    
Wind  
Wind Speed 4 mph (SSW)    
Max Wind Speed 8 mph    
Max Gust Speed -    
Visibility 6 miles    
Events      
Averages and records for this station are not official NWS values.
T = Trace of Precipitation, MM = Missing Value Source: NWS Daily Summary

Daily Weather History Graph

Daily Weather History Graph

Search for Another Location

Airport:

Trip Planner

Search our weather history database for the weather conditions in past years. The results will help you decide how hot, cold, wet, or windy it might be!

Date:

Astronomy

Oct. 09, 2012 Rise Set
Actual Time 7:20 AM PDT 6:31 PM PDT
Civil Twilight 6:49 AM PDT 7:02 PM PDT
Nautical Twilight 6:13 AM PDT 7:37 PM PDT
Astronomical Twilight 5:37 AM PDT 8:13 PM PDT
Moon 12:36 AM PDT (10/9) 3:24 PM PDT (10/9)
Length of Visible Light 12h 12m
Length of Day
11h 10m
Waning Crescent, 35% of the Moon is Illuminated
Oct 9
Waning Crescent
Oct 15
New
Oct 21
First Quarter
Oct 29
Full
Nov 6
Last Quarter

Hourly Weather History & Observations

Time (PDT) Temp. Dew Point Humidity Pressure Visibility Wind Dir Wind Speed Gust Speed Precip Events Conditions
12:53 AM 48.9 °F 43.0 °F 80% 30.06 in 10.0 mi SSW 3.5 mph - N/A   Clear
1:53 AM 50.0 °F 46.4 °F 87% 30.06 in 10.0 mi South 3.5 mph - N/A   Clear
2:53 AM 48.9 °F 46.0 °F 90% 30.07 in 8.0 mi South 5.8 mph - N/A   Clear
3:53 AM 48.9 °F 46.0 °F 90% 30.08 in 7.0 mi SSW 4.6 mph - N/A   Partly Cloudy
4:09 AM 50.0 °F 46.4 °F 87% 30.08 in 6.0 mi SSW 4.6 mph - N/A   Mostly Cloudy
4:27 AM 50.0 °F 46.4 °F 87% 30.09 in 4.0 mi SSE 8.1 mph - N/A   Overcast
4:53 AM 50.0 °F 48.0 °F 93% 30.09 in 2.5 mi South 6.9 mph - N/A   Overcast
5:00 AM 50.0 °F 48.2 °F 94% 30.09 in 3.0 mi SSE 5.8 mph - N/A   Overcast
5:53 AM 50.0 °F 46.9 °F 89% 30.10 in 4.0 mi SW 4.6 mph - N/A   Overcast
6:53 AM 50.0 °F 46.9 °F 89% 30.10 in 5.0 mi South 5.8 mph - N/A   Overcast
7:53 AM 50.0 °F 46.0 °F 86% 30.11 in 5.0 mi South 5.8 mph - N/A   Overcast
8:00 AM 50.0 °F 46.4 °F 87% 30.11 in 4.0 mi SSW 4.6 mph - N/A   Overcast
8:53 AM 50.0 °F 46.9 °F 89% 30.13 in 2.0 mi Calm Calm - N/A   Overcast
9:53 AM 50.0 °F 46.0 °F 86% 30.14 in 2.0 mi South 5.8 mph - N/A   Overcast
10:00 AM 51.8 °F 46.4 °F 82% 30.13 in 3.0 mi SSW 5.8 mph - N/A   Haze
10:53 AM 52.0 °F 46.0 °F 80% 30.14 in 4.0 mi Calm Calm - N/A   Haze
11:53 AM 52.0 °F 46.9 °F 83% 30.14 in 7.0 mi NW 4.6 mph - N/A   Overcast
12:53 PM 53.1 °F 46.9 °F 80% 30.12 in 7.0 mi WSW 5.8 mph - N/A   Overcast
1:53 PM 53.1 °F 46.9 °F 80% 30.11 in 9.0 mi West 6.9 mph - N/A   Overcast
2:27 PM 53.6 °F 46.4 °F 77% 30.10 in 8.0 mi Variable 3.5 mph - N/A   Mostly Cloudy
2:53 PM 55.0 °F 46.9 °F 74% 30.10 in 8.0 mi West 4.6 mph - N/A   Mostly Cloudy
3:39 PM 55.4 °F 46.4 °F 72% 30.09 in 10.0 mi Calm Calm - N/A   Scattered Clouds
3:53 PM 55.9 °F 46.9 °F 72% 30.09 in 10.0 mi North 4.6 mph - N/A   Clear
4:53 PM 55.0 °F 46.9 °F 74% 30.08 in 7.0 mi North 3.5 mph - N/A   Clear
5:53 PM 53.1 °F 46.9 °F 80% 30.06 in 6.0 mi Calm Calm - N/A   Haze
6:53 PM 53.1 °F 46.9 °F 80% 30.06 in 5.0 mi East 4.6 mph - N/A   Haze
7:53 PM 52.0 °F 46.9 °F 83% 30.05 in 5.0 mi Calm Calm - N/A   Haze
8:53 PM 50.0 °F 46.0 °F 86% 30.06 in 5.0 mi Calm Calm - N/A   Clear
9:53 PM 51.1 °F 46.0 °F 83% 30.06 in 5.0 mi Calm Calm - N/A   Haze
10:53 PM 48.9 °F 45.0 °F 86% 30.05 in 4.0 mi Calm Calm - N/A   Clear
11:53 PM 48.9 °F 46.0 °F 90% 30.05 in 2.5 mi NNE 3.5 mph - N/A   Clear